Regional Weather Roundup
Issued by NWS

Home | Current Version | Previous Version | Graphics & Text | Print | Product List | Glossary Off
Versions: 1 2 3 4 5 6 7 8 9 10 11 12 13 14 15 16 17 18 19 20 21 22 23 24 25 26 27 28 29 30 31 32 33 34 35 36 37 38 39 40 41 42 43 44 45 46 47 48 49 50

000
ASUS43 KTOP 252308
RWRKS

WEATHER ROUNDUP FOR KANSAS
NATIONAL WEATHER SERVICE GOODLAND KS
600 PM CDT THU MAY 25 2017

NOTE:  "FAIR" INDICATES FEW OR NO CLOUDS BELOW 12,000 FEET WITH NO
SIGNIFICANT WEATHER AND/OR OBSTRUCTIONS TO VISIBILITY.

KSZ001>006-013>018-027>032-041>047-260000-
NORTHWEST KANSAS

CITY           SKY/WX    TMP DP  RH WIND       PRES   REMARKS
GOODLAND       TSTM      63  55  75 N24G38    29.52R
HAYS           SUNNY     81  59  47 S14       29.46F
HILL CITY      SUNNY     83  56  39 SE8       29.47R
RUSSELL        SUNNY     80  58  46 S14       29.46S
$$

KSZ061>065-074>080-084>089-260000-
SOUTHWEST KANSAS

CITY           SKY/WX    TMP DP  RH WIND       PRES   REMARKS
DODGE CITY     SUNNY     83  58  42 S14       29.45F
ELKHART          N/A     90  37  15 MISG        N/A
GARDEN CITY    MOSUNNY   82  52  35 S10       29.45S
GREAT BEND     SUNNY     81  60  48 S17G24    29.46S
LIBERAL        SUNNY     94  41  16 SW22      29.45F
PRATT          SUNNY     81  55  41 S23G29    29.44F
$$

KSZ066>073-081>083-090>101-260000-
SOUTHEAST KANSAS

CITY           SKY/WX    TMP DP  RH WIND       PRES   REMARKS
CHANUTE        SUNNY     79  58  48 S15       29.56F
COFFEYVILLE    SUNNY     81  61  50 S15       29.56F
HUTCHINSON     SUNNY     83  58  42 S21G30    29.47F
MEDICINE LODGE   N/A     85  56  37 S18G29    29.45S
NEWTON         SUNNY     80  58  46 S24G30    29.50F
PARSONS        SUNNY     80  58  46 S10G20    29.57F
WICHITA INTL   MOSUNNY   83  59  44 S24G31    29.48F
WICHITA JABRA  SUNNY     80  59  48 S21G28    29.50F
WICHITA MCCONL SUNNY     82  58  43 S20G25    29.49F
WINFIELD       SUNNY     81  61  50 S16G26    29.52F
$$

KSZ007>012-019>026-033>040-048>060-102>105-260000-
NORTHEAST KANSAS

CITY           SKY/WX    TMP DP  RH WIND       PRES   REMARKS
CONCORDIA      SUNNY     77  58  51 S14       29.49F
EMPORIA        SUNNY     77  57  50 S16       29.53F
LAWRENCE       SUNNY     77  54  44 SE22G28   29.56F
MANHATTAN      SUNNY     79  57  46 S18G24    29.51S
MARYSVILLE     SUNNY     77  55  47 S17G23    29.53R
OLATHE IND     PTSUNNY   76  55  48 SE17      29.58F
OLATHE EXE     MOSUNNY   74  56  53 S14G23    29.59F
SALINA         SUNNY     82  57  42 S17       29.48F
TOPEKA BILLARD SUNNY     77  56  48 SE20G29   29.54F
TOPEKA FORBES  SUNNY     79  57  46 SE13G22   29.54F
$$




USA.gov is the U.S. government's official web portal to all federal, state and local government web resources and services.